Content
SEND FEEDBACK

Daily
Averages
Monthly
Summary
Thailand

PHUKET, THAILAND


Home > Asia > Thailand
Elevation: 33 feet     Latitude: 08 07N     Longitude: 098 19E

WEATHER
 
SELECT A DAY
Number of Records: 227,625;   Date Range: 7/1/96 - 7/29/14
 
SHARE

PRINT THIS DATA

[ ← Previous Day ]
WEATHER ALMANAC - JANUARY 3, 2013
[ Next Day → ]
[ °C ]   °F
Weather ElementAverageHighLow
Temperature80.3 °F84.2 °F (11:00 am)77 °F (6:00 am)
Dewpoint73.5 °F76 °F (1:00 am)71.6 °F (11:30 am)
Humidity79.7 %94 % (8:30 pm)66 % (11:30 am)
Barometer29.87 in29.92 in (9:00 am)29.80 in (3:30 am)
Wind Speed4.3 mph12.7 mph (11:00 am)
Weather ElementAverage
Visibility4.9 mi
Wind DirectionENE (60.8 °)

Weather ElementTotal
Precipitation---
Cooling Degree Days15.6 (Base 65)
Growing Degree Days30.6 (Base 50)
Averaged from 50 records on January 3, 2013
WEATHER CONDITIONS BREAKOUT
WIND DIRECTION BREAKOUT
WEATHER BY HOUR - JANUARY 3, 2013
[ °C ]   °F
Local TimeTemperatureDewpointHumidityBarometerVisibilityWind DirectionWind SpeedGust SpeedPrecipitationEventsConditions
12:30 AM80.6 °F73.4 °F79 %29.89 in6.2 miENE (60°)5.8 mphScattered Clouds
1:00 AM80.0 °F76.0 °F83 %29.84 in6.0 miCalmScattered Clouds
1:00 AM80.6 °F73.4 °F79 %29.89 in6.2 miCalmScattered Clouds
1:30 AM80.6 °F73.4 °F79 %29.89 in6.2 miEast (90°)3.5 mphScattered Clouds
2:00 AM80.6 °F73.4 °F79 %29.86 in6.2 miCalmScattered Clouds
3:00 AM78.8 °F73.4 °F83 %29.83 in6.2 miCalmScattered Clouds
3:30 AM78.8 °F73.4 °F83 %29.80 in6.2 miEast (80°)5.8 mphScattered Clouds
4:00 AM78.8 °F73.4 °F83 %29.80 in6.2 miEast (90°)3.5 mphScattered Clouds
4:30 AM78.8 °F73.4 °F83 %29.83 in6.2 miENE (60°)5.8 mphScattered Clouds
5:00 AM78.8 °F73.4 °F83 %29.83 in6.2 miCalmScattered Clouds
5:30 AM78.8 °F73.4 °F83 %29.83 in6.2 miCalmMostly Cloudy
6:00 AM77.0 °F73.4 °F89 %29.83 in6.2 miCalmMostly Cloudy
6:30 AM77.0 °F73.4 °F89 %29.86 in6.2 miCalmMostly Cloudy
7:00 AM79.0 °F75.0 °F83 %29.83 in6.0 miCalmScattered Clouds
7:00 AM77.0 °F73.4 °F89 %29.86 in6.2 miCalmMostly Cloudy
7:30 AM78.8 °F73.4 °F83 %29.86 in5.6 miCalmMostly Cloudy
8:00 AM78.8 °F73.4 °F83 %29.89 in5.0 miENE (60°)4.6 mphMostly Cloudy
8:30 AM80.6 °F73.4 °F79 %29.89 in5.0 miNE (50°)3.5 mphMostly Cloudy
9:00 AM80.6 °F73.4 °F79 %29.92 in4.3 miENE (60°)3.5 mphMostly Cloudy
9:30 AM80.6 °F73.4 °F79 %29.92 in4.3 miENE (70°)5.8 mphMostly Cloudy
10:00 AM82.4 °F75.2 °F79 %29.92 in4.3 miEast (80°)4.6 mphMostly Cloudy
10:30 AM82.4 °F73.4 °F74 %29.89 in4.3 miEast (80°)9.2 mphMostly Cloudy
11:00 AM84.2 °F73.4 °F70 %29.89 in4.3 miEast (90°)12.7 mphMostly Cloudy
11:30 AM84.2 °F71.6 °F66 %29.89 in4.3 miEast (90°)11.5 mphMostly Cloudy
12:00 PM82.4 °F73.4 °F74 %29.89 in4.3 miEast (90°)10.4 mphMostly Cloudy
12:30 PM84.2 °F73.4 °F70 %29.89 in4.3 miEast (80°)9.2 mphMostly Cloudy
1:00 PM84.0 °F75.0 °F69 %29.86 in4.0 miEast (100°)8.1 mphMist
1:00 PM82.4 °F71.6 °F70 %29.89 in4.3 miENE (70°)9.2 mphMostly Cloudy
1:30 PM84.2 °F73.4 °F70 %29.86 in4.3 miEast (100°)11.5 mphMostly Cloudy
2:00 PM84.2 °F71.6 °F66 %29.86 in4.3 miEast (100°)12.7 mphMostly Cloudy
2:30 PM82.4 °F73.4 °F74 %29.83 in4.3 miEast (100°)3.5 mphMostly Cloudy
3:00 PM82.4 °F73.4 °F74 %29.83 in4.3 miEast (100°)9.2 mphMostly Cloudy
3:30 PM82.4 °F73.4 °F74 %29.83 in3.7 miEast (90°)9.2 mphMostly Cloudy
4:00 PM82.4 °F73.4 °F74 %29.83 in3.7 miESE (120°)8.1 mphMostly Cloudy
4:30 PM82.4 °F73.4 °F74 %29.83 in3.7 miEast (100°)9.2 mphMostly Cloudy
5:00 PM80.6 °F71.6 °F74 %29.83 in3.7 miEast (100°)6.9 mphMostly Cloudy
5:30 PM80.6 °F73.4 °F79 %29.83 in3.7 miESE (120°)5.8 mphMostly Cloudy
6:00 PM80.6 °F73.4 °F79 %29.83 in3.7 miSE (130°)4.6 mphMostly Cloudy
6:30 PM80.6 °F73.4 °F79 %29.86 in4.3 miSE (130°)4.6 mphMostly Cloudy
7:00 PM82.0 °F76.0 °F76 %29.83 in4.0 miESE (120°)3.5 mphMist
7:00 PM78.8 °F73.4 °F83 %29.86 in4.3 miESE (120°)3.5 mphMostly Cloudy
7:30 PM78.8 °F73.4 °F83 %29.86 in4.3 miEast (90°)4.6 mphMostly Cloudy
8:00 PM78.8 °F73.4 °F83 %29.89 in4.3 miEast (100°)3.5 mphMostly Cloudy
8:30 PM77.0 °F75.2 °F94 %29.89 in5.6 miCalmMostly Cloudy
9:00 PM77.0 °F73.4 °F89 %29.92 in5.0 miCalmMostly Cloudy
9:30 PM77.0 °F73.4 °F89 %29.92 in5.0 miCalmMostly Cloudy
10:00 PM77.0 °F73.4 °F89 %29.92 in5.0 miCalmMostly Cloudy
10:30 PM78.8 °F73.4 °F83 %29.92 in5.0 miCalmMostly Cloudy
11:00 PM77.0 °F73.4 °F89 %29.92 in5.0 miCalmMostly Cloudy
11:30 PM77.0 °F73.4 °F89 %29.92 in5.0 miCalmMostly Cloudy
Hourly data recorded from VTSP, located miles away from Phuket, Thailand







STORIES FROM OUR PARTNERS